Vorticity
11 9 8 8 8 7 4 4 5 5 6 9 11 11 11 9 6 5 6 7 8 8
8 9 9 7 7 5 5 5 3 5 9 11 11 10 8 6 6 8 9 10 10 11
10 9 10 8 5 3 2 3 8 12 16 14 10 7 7 8 10 11 12 11 12 12
10 8 5 4 2 2 5 13 18 16 10 6 4 5 7 9 10 12 12 11 10 9
6 4 2 1 4 13 18 15 9 7 5 5 6 8 8 10 12 11 10 8 8 9
4 4 6 12 17 12 7 6 6 6 6 7 9 10 11 12 11 9 9 10 10 9
7 10 15 11 9 9 8 7 6 6 7 9 9 11 11 8 7 11 11 10 10 10
12 8 9 8 6 6 5 6 8 10 12 12 10 9 10 13 13 10 11 11 10 10
9 7 6 5 6 9 12 14 12 12 14 16 16 14 11 11 12 11 10 10 10 10
8 8 9 11 11 12 15 15 15 14 13 13 12 10 10 10 10 9 10 10 10 12
8 9 11 14 16 14 12 12 12 11 10 10 10 9 10 9 9 8 8 8 10 10
10 12 16 13 14 14 9 8 7 8 8 8 10 7 8 7 7 8 9 10 10 11
14 16 15 10 6 6 7 7 8 7 8 8 9 9 8 8 7 8 8 8 9 10
13 10 6 6 8 7 6 5 5 6 7 8 7 8 7 7 5 7 8 12 15 15
Height
3122 3121 3120 3119 3118 3117 3116 3114 3112 3109 3106 3103 3101 3099 3096 3094 3091 3089 3086 3083 3081 3077
3115 3115 3114 3113 3112 3111 3109 3107 3104 3101 3099 3096 3093 3091 3089 3088 3085 3081 3078 3075 3073 3071
3110 3110 3109 3108 3107 3105 3102 3100 3097 3094 3091 3089 3087 3085 3083 3080 3076 3074 3071 3067 3065 3063
3106 3105 3104 3102 3100 3097 3094 3091 3088 3086 3084 3082 3079 3077 3075 3072 3068 3065 3063 3060 3057 3055
3100 3098 3096 3094 3091 3088 3085 3083 3081 3079 3077 3075 3072 3069 3066 3064 3061 3058 3056 3053 3050 3048
3093 3091 3088 3085 3083 3080 3079 3077 3074 3072 3069 3067 3064 3062 3058 3056 3053 3051 3048 3046 3043 3040
3084 3082 3080 3078 3076 3074 3072 3070 3067 3064 3061 3057 3055 3052 3050 3048 3044 3042 3039 3037 3034 3032
3077 3075 3072 3071 3069 3066 3064 3061 3058 3055 3052 3049 3046 3043 3041 3039 3036 3033 3031 3028 3025 3023
3070 3067 3065 3063 3060 3058 3055 3052 3049 3046 3043 3039 3037 3034 3032 3029 3027 3025 3022 3020 3017 3013
3061 3059 3056 3054 3051 3048 3046 3042 3040 3037 3034 3032 3029 3026 3024 3021 3019 3016 3013 3010 3008 3005
3053 3051 3047 3045 3042 3039 3036 3034 3032 3029 3027 3024 3021 3018 3015 3013 3009 3007 3003 3001 2997 2995
3045 3042 3039 3037 3034 3032 3030 3027 3024 3022 3019 3016 3014 3010 3006 3004 3000 2998 2995 2992 2989 2986
3037 3034 3032 3030 3027 3025 3021 3019 3016 3013 3010 3006 3003 3001 2996 2994 2990 2988 2985 2982 2979 2976
3028 3027 3024 3022 3020 3017 3014 3010 3007 3004 3002 2997 2994 2990 2987 2983 2978 2975 2972 2970 2968 2965